Change the Weather History Date:

Tuesday, December 18, 2012

  Actual Average Record
Temperature  
Mean Temperature 46 °F -  
Max Temperature 65 °F 49 °F 75 °F (2001)
Min Temperature 28 °F 26 °F 15 °F (1996)
Degree Days  
Heating Degree Days 18    
Moisture  
Dew Point 30 °F    
Average Humidity 61    
Maximum Humidity 88    
Minimum Humidity 26    
Precipitation  
Precipitation 0.00 in - - ()
Sea Level Pressure  
Sea Level Pressure 29.77 in    
Wind  
Wind Speed 4 mph (NNE)    
Max Wind Speed 12 mph    
Max Gust Speed -    
Visibility 9 miles    
Events      
Averages and records for this station are not official NWS values.
T = Trace of Precipitation, MM = Missing Value Source: NWS Daily Summary

Daily Weather History Graph

Daily Weather History Graph

Search for Another Location

Airport or City:

Trip Planner

Search our weather history database for the weather conditions in past years. The results will help you decide how hot, cold, wet, or windy it might be!

Date:

Astronomy

Dec. 18, 2012 Rise Set
Actual Time 7:38 AM CST 5:29 PM CST
Civil Twilight 7:10 AM CST 5:57 PM CST
Nautical Twilight 6:39 AM CST 6:28 PM CST
Astronomical Twilight 6:08 AM CST 6:59 PM CST
Moon 11:32 AM CST (12/18) 11:42 PM CST (12/18)
Length of Visible Light 10h 46m
Length of Day
9h 50m
Waxing Crescent, 35% of the Moon is Illuminated
Dec 18
Waxing Crescent
Dec 19
First Quarter
Dec 28
Full
Jan 4
Last Quarter
Jan 11
New

Hourly Weather History & Observations

Time (CST) Temp. Windchill Dew Point Humidity Pressure Visibility Wind Dir Wind Speed Gust Speed Precip Events Conditions
12:55 AM 33.4 °F 29.1 °F 27.3 °F 78% 29.77 in 10.0 mi SE 4.6 mph - N/A   Clear
1:55 AM 32.5 °F 28.1 °F 27.0 °F 80% 29.75 in 10.0 mi SE 4.6 mph - N/A   Clear
2:55 AM 31.5 °F - 26.4 °F 82% 29.75 in 10.0 mi Calm Calm - N/A   Clear
3:55 AM 28.8 °F 22.6 °F 25.7 °F 88% 29.75 in 10.0 mi NNE 5.8 mph - N/A   Clear
4:55 AM 30.4 °F - 25.5 °F 82% 29.73 in 10.0 mi Calm Calm - N/A   Clear
5:55 AM 30.2 °F 25.4 °F 25.5 °F 83% 29.75 in 10.0 mi WNW 4.6 mph - N/A   Clear
6:55 AM 29.1 °F - 25.2 °F 85% 29.76 in 10.0 mi Calm Calm - N/A   Clear
7:55 AM 29.3 °F 24.3 °F 23.7 °F 80% 29.79 in 10.0 mi NW 4.6 mph - N/A   Clear
8:55 AM 37.2 °F 34.7 °F 32.2 °F 82% 29.80 in 10.0 mi NNW 3.5 mph - N/A   Clear
9:55 AM 45.5 °F 39.9 °F 31.5 °F 58% 29.82 in 10.0 mi NW 11.5 mph - N/A   Clear
10:55 AM 51.3 °F - 33.1 °F 50% 29.83 in 10.0 mi WNW 8.1 mph - N/A   Clear
11:55 AM 57.7 °F - 33.4 °F 40% 29.81 in 10.0 mi NW 6.9 mph - N/A   Clear
12:55 PM 64.0 °F - 28.4 °F 26% 29.79 in 10.0 mi NE 9.2 mph - N/A   Clear
1:55 PM 64.9 °F - 28.8 °F 26% 29.78 in 10.0 mi ENE 5.8 mph - N/A   Clear
2:55 PM 65.5 °F - 29.1 °F 26% 29.77 in 10.0 mi NE 4.6 mph - N/A   Clear
3:55 PM 64.0 °F - 30.6 °F 28% 29.76 in 10.0 mi NE 6.9 mph - N/A   Clear
4:55 PM 60.6 °F - 33.1 °F 36% 29.77 in 5.0 mi ENE 4.6 mph - N/A   Haze
5:55 PM 52.0 °F - 34.3 °F 51% 29.78 in 8.0 mi Calm Calm - N/A   Clear
5:57 PM 53.6 °F - 32.0 °F 44% 29.79 in 2.5 mi Calm Calm - N/A   Haze
6:00 PM 53.6 °F - 32.0 °F 44% 29.78 in 10.0 mi Calm Calm - N/A   Clear
6:55 PM 44.6 °F 43.1 °F 33.3 °F 64% 29.79 in 9.0 mi East 3.5 mph - N/A   Clear
7:55 PM 40.8 °F 36.2 °F 33.4 °F 75% 29.79 in 10.0 mi ENE 6.9 mph - N/A   Clear
8:55 PM 41.7 °F 36.7 °F 33.3 °F 72% 29.75 in 10.0 mi ENE 8.1 mph - N/A   Clear
9:55 PM 41.5 °F - 32.9 °F 71% 29.74 in 9.0 mi Calm Calm - N/A   Clear
10:55 PM 42.8 °F 40.1 °F 32.5 °F 67% 29.75 in 10.0 mi NE 4.6 mph - N/A   Clear
11:55 PM 39.2 °F - 31.6 °F 74% 29.72 in 10.0 mi Calm Calm - N/A   Clear